sat.trackr.live / text

‹ back to catalog

STARLINK-36236

NORAD 67078 · 2025-298D

PAYLOAD ACTIVE UNKNOWN

§ Identity

Operator
Country
US
Launch date
2025-12-14
Launch site
AFWTR
Launch vehicle
Mass (kg)
RCS (m²)

Purposes: comms

External: N2YO · Heavens-Above · Gunter

§ Orbital elements

Epoch: 2026-09-20T08:35:24.669024Z

Period
96.11 min
Inclination
69.9996°
Eccentricity
0.0003578
Mean motion
14.98336662 rev/d
Perigee alt
569.5 km
Apogee alt
574.5 km
Semi-major
6,950.2 km
B*
2.0979e-4
RAAN
243.7542°
Arg perigee
269.0279°
Mean anomaly
91.0470°
Rev number
4,237

§ Raw data

STARLINK-362361 67078U 25298D   26263.35792441  .00002411  00000+0  20979-3 0  99952 67078  69.9996 243.7542 0003578 269.0279  91.0470 14.98336662 42378

JSON: /api/v1/satellites/67078 · /tle

For live sub-satellite position, see the globe view (requires WebGL).

§ Visibility from observer

Set your observer location to see the next 7 days of passes ≥ 10°. The values pass through the URL so the page stays shareable.

No JS? Fill the form by hand. The geolocation button needs JavaScript.